Time,TemperatureF,DewpointF,PressureIn,WindDirection,WindDirectionDegrees,WindSpeedMPH,WindSpeedGustMPH,Humidity,HourlyPrecipIn,Conditions,Clouds,dailyrainin,SoftwareType,DateUTC
2013-04-09 00:00:00,65.5,48.8,29.89,NNW,337,0.0,5.1,55,0.00,,,0.00,WUHU21623XXSP,2013-04-09 04:00:00,
2013-04-09 00:05:00,65.5,48.8,29.90,NNW,337,0.0,1.6,55,0.00,,,0.00,WUHU21623XXSP,2013-04-09 04:05:00,
2013-04-09 00:10:00,65.5,48.8,29.90,NW,315,4.5,4.5,55,0.00,,,0.00,WUHU21623XXSP,2013-04-09 04:10:00,
2013-04-09 00:15:00,65.5,48.8,29.90,NW,315,0.0,4.5,55,0.00,,,0.00,WUHU21623XXSP,2013-04-09 04:15:00,
2013-04-09 00:20:00,65.5,48.8,29.90,SSW,202,1.1,1.1,55,0.00,,,0.00,WUHU21623XXSP,2013-04-09 04:20:00,
2013-04-09 00:25:00,65.5,48.8,29.90,West,270,2.9,3.6,55,0.00,,,0.00,WUHU21623XXSP,2013-04-09 04:25:00,
2013-04-09 00:30:00,65.5,48.8,29.90,West,270,1.8,3.6,55,0.00,,,0.00,WUHU21623XXSP,2013-04-09 04:30:00,
2013-04-09 00:35:00,65.3,48.7,29.90,NNW,337,1.8,1.8,55,0.00,,,0.00,WUHU21623XXSP,2013-04-09 04:35:00,
2013-04-09 00:40:00,65.1,49.0,29.91,WNW,292,5.1,5.8,56,0.00,,,0.00,WUHU21623XXSP,2013-04-09 04:40:00,
2013-04-09 00:45:00,65.3,49.1,29.91,SW,225,2.0,5.8,56,0.00,,,0.00,WUHU21623XXSP,2013-04-09 04:45:00,
2013-04-09 00:50:00,65.3,49.1,29.90,SSE,157,0.0,2.2,56,0.00,,,0.00,WUHU21623XXSP,2013-04-09 04:50:00,
2013-04-09 00:55:00,65.1,49.0,29.90,North,0,2.2,2.2,56,0.00,,,0.00,WUHU21623XXSP,2013-04-09 04:55:00,
2013-04-09 01:00:00,64.9,49.0,29.91,North,0,2.2,2.2,56,0.00,,,0.00,WUHU21623XXSP,2013-04-09 05:00:00,
2013-04-09 01:05:00,64.9,48.8,29.91,NW,315,0.0,2.2,56,0.00,,,0.00,WUHU21623XXSP,2013-04-09 05:05:00,
2013-04-09 01:10:00,65.1,49.4,29.90,NNE,22,0.0,4.0,57,0.00,,,0.00,WUHU21623XXSP,2013-04-09 05:10:00,
2013-04-09 01:15:00,64.9,49.3,29.91,SW,225,3.8,7.2,57,0.00,,,0.00,WUHU21623XXSP,2013-04-09 05:15:00,
2013-04-09 01:20:00,64.9,49.3,29.91,WNW,292,0.0,7.2,57,0.00,,,0.00,WUHU21623XXSP,2013-04-09 05:20:00,
2013-04-09 01:25:00,65.1,49.4,29.91,NW,315,6.3,6.3,57,0.00,,,0.00,WUHU21623XXSP,2013-04-09 05:25:00,
2013-04-09 01:30:00,65.1,49.4,29.91,WNW,292,0.0,6.3,57,0.00,,,0.00,WUHU21623XXSP,2013-04-09 05:30:00,
2013-04-09 01:35:00,64.9,49.4,29.91,NW,315,2.0,2.0,57,0.00,,,0.00,WUHU21623XXSP,2013-04-09 05:35:00,
2013-04-09 01:40:00,64.9,49.7,29.91,SE,135,8.3,8.3,58,0.00,,,0.00,WUHU21623XXSP,2013-04-09 05:40:00,
2013-04-09 01:45:00,65.1,49.9,29.91,West,270,2.5,8.3,58,0.00,,,0.00,WUHU21623XXSP,2013-04-09 05:45:00,
2013-04-09 01:50:00,65.1,49.9,29.91,NW,315,1.3,2.5,58,0.00,,,0.00,WUHU21623XXSP,2013-04-09 05:50:00,
2013-04-09 01:55:00,65.3,49.9,29.92,NW,315,1.3,1.3,58,0.00,,,0.00,WUHU21623XXSP,2013-04-09 05:55:00,
2013-04-09 02:00:00,65.5,50.1,29.91,NNW,337,4.3,4.3,59,0.00,,,0.00,WUHU21623XXSP,2013-04-09 06:00:00,
2013-04-09 02:05:00,65.5,50.8,29.91,NW,315,0.9,4.3,59,0.00,,,0.00,WUHU21623XXSP,2013-04-09 06:05:00,
2013-04-09 02:10:00,65.5,50.8,29.91,NW,315,3.1,4.3,59,0.00,,,0.00,WUHU21623XXSP,2013-04-09 06:10:00,
2013-04-09 02:15:00,65.5,50.8,29.91,North,0,4.9,4.9,59,0.00,,,0.00,WUHU21623XXSP,2013-04-09 06:15:00,
2013-04-09 02:20:00,65.5,50.8,29.91,NNW,337,3.6,4.9,59,0.00,,,0.00,WUHU21623XXSP,2013-04-09 06:20:00,
2013-04-09 02:25:00,65.5,50.8,29.92,SW,225,5.6,5.6,59,0.00,,,0.00,WUHU21623XXSP,2013-04-09 06:25:00,
2013-04-09 02:30:00,65.5,51.3,29.91,SW,225,5.6,5.6,60,0.00,,,0.00,WUHU21623XXSP,2013-04-09 06:30:00,
2013-04-09 02:35:00,65.3,51.1,29.92,WSW,247,5.8,5.8,61,0.00,,,0.00,WUHU21623XXSP,2013-04-09 06:35:00,
2013-04-09 02:40:00,63.7,51.7,29.92,NW,315,3.6,5.8,65,0.00,,,0.00,WUHU21623XXSP,2013-04-09 06:40:00,
2013-04-09 02:45:00,62.4,51.5,29.91,NW,315,3.6,4.3,68,0.00,,,0.00,WUHU21623XXSP,2013-04-09 06:45:00,
2013-04-09 02:50:00,62.2,51.5,29.92,NW,315,3.6,3.6,68,0.00,,,0.00,WUHU21623XXSP,2013-04-09 06:50:00,
2013-04-09 02:55:00,62.1,52.2,29.92,West,270,0.9,4.5,70,0.00,,,0.00,WUHU21623XXSP,2013-04-09 06:55:00,
2013-04-09 03:00:00,61.2,52.1,29.92,West,270,0.9,4.5,71,0.00,,,0.00,WUHU21623XXSP,2013-04-09 07:00:00,
2013-04-09 03:05:00,60.4,51.8,29.92,WNW,292,1.1,6.7,73,0.00,,,0.00,WUHU21623XXSP,2013-04-09 07:05:00,
2013-04-09 03:10:00,60.4,52.0,29.93,NW,315,1.8,6.7,74,0.00,,,0.00,WUHU21623XXSP,2013-04-09 07:10:00,
2013-04-09 03:15:00,60.6,52.3,29.93,NNW,337,3.1,3.6,74,0.00,,,0.00,WUHU21623XXSP,2013-04-09 07:15:00,
2013-04-09 03:20:00,61.0,52.7,29.93,NW,315,1.6,3.6,74,0.00,,,0.00,WUHU21623XXSP,2013-04-09 07:20:00,
2013-04-09 03:25:00,61.0,52.7,29.93,NW,315,1.8,3.1,73,0.00,,,0.00,WUHU21623XXSP,2013-04-09 07:25:00,
2013-04-09 03:30:00,61.0,52.7,29.93,NW,315,1.1,1.8,74,0.00,,,0.00,WUHU21623XXSP,2013-04-09 07:30:00,
2013-04-09 03:35:00,60.4,51.8,29.93,NW,315,1.3,2.2,73,0.00,,,0.00,WUHU21623XXSP,2013-04-09 07:35:00,
2013-04-09 03:40:00,60.1,51.8,29.93,NW,315,0.0,2.2,73,0.00,,,0.00,WUHU21623XXSP,2013-04-09 07:40:00,
2013-04-09 03:45:00,59.9,51.6,29.93,NW,315,0.9,0.9,74,0.00,,,0.00,WUHU21623XXSP,2013-04-09 07:45:00,
2013-04-09 03:50:00,59.5,51.6,29.93,NW,315,0.0,0.9,75,0.00,,,0.00,WUHU21623XXSP,2013-04-09 07:50:00,
2013-04-09 03:55:00,58.8,50.9,29.94,NW,315,0.0,0.0,75,0.00,,,0.00,WUHU21623XXSP,2013-04-09 07:55:00,
2013-04-09 04:02:00,58.8,50.9,29.93,NW,315,0.0,0.0,75,0.00,,,0.00,WUHU21623XXSP,2013-04-09 08:02:00,
2013-04-09 04:07:00,58.3,50.7,29.94,NW,315,0.0,0.0,76,0.00,,,0.00,WUHU21623XXSP,2013-04-09 08:07:00,
2013-04-09 04:12:00,57.9,50.4,29.94,NW,315,0.0,0.0,76,0.00,,,0.00,WUHU21623XXSP,2013-04-09 08:12:00,
2013-04-09 04:17:00,57.4,49.8,29.94,NW,315,0.0,0.0,76,0.00,,,0.00,WUHU21623XXSP,2013-04-09 08:17:00,
2013-04-09 04:22:00,57.0,49.5,29.94,NW,315,0.0,0.0,76,0.00,,,0.00,WUHU21623XXSP,2013-04-09 08:22:00,
2013-04-09 04:27:00,56.8,49.3,29.95,NW,315,0.0,0.0,76,0.00,,,0.00,WUHU21623XXSP,2013-04-09 08:27:00,
2013-04-09 04:32:00,56.5,48.9,29.94,NW,315,0.0,0.0,76,0.00,,,0.00,WUHU21623XXSP,2013-04-09 08:32:00,
2013-04-09 04:37:00,56.1,48.9,29.95,NW,315,1.1,1.1,77,0.00,,,0.00,WUHU21623XXSP,2013-04-09 08:37:00,
2013-04-09 04:42:00,55.9,49.1,29.95,NW,315,0.0,1.1,78,0.00,,,0.00,WUHU21623XXSP,2013-04-09 08:42:00,
2013-04-09 04:47:00,55.8,49.1,29.95,NW,315,0.0,0.0,78,0.00,,,0.00,WUHU21623XXSP,2013-04-09 08:47:00,
2013-04-09 04:52:00,55.4,48.6,29.95,NW,315,0.0,0.0,78,0.00,,,0.00,WUHU21623XXSP,2013-04-09 08:52:00,
2013-04-09 04:57:00,55.2,48.4,29.96,NW,315,0.0,0.0,78,0.00,,,0.00,WUHU21623XXSP,2013-04-09 08:57:00,
2013-04-09 05:02:00,55.0,48.6,29.96,NW,315,0.0,0.0,79,0.00,,,0.00,WUHU21623XXSP,2013-04-09 09:02:00,
2013-04-09 05:07:00,54.5,48.1,29.96,NW,315,0.0,0.0,79,0.00,,,0.00,WUHU21623XXSP,2013-04-09 09:07:00,
2013-04-09 05:12:00,54.3,47.9,29.96,NW,315,0.0,0.0,79,0.00,,,0.00,WUHU21623XXSP,2013-04-09 09:12:00,
2013-04-09 05:17:00,54.1,48.1,29.96,NW,315,0.0,0.0,80,0.00,,,0.00,WUHU21623XXSP,2013-04-09 09:17:00,
2013-04-09 05:22:00,53.8,47.8,29.96,NW,315,0.0,0.0,80,0.00,,,0.00,WUHU21623XXSP,2013-04-09 09:22:00,
2013-04-09 05:27:00,53.8,47.8,29.96,NW,315,0.0,0.0,80,0.00,,,0.00,WUHU21623XXSP,2013-04-09 09:27:00,
2013-04-09 05:32:00,53.6,47.7,29.96,NW,315,0.0,0.0,80,0.00,,,0.00,WUHU21623XXSP,2013-04-09 09:32:00,
2013-04-09 05:37:00,53.4,47.8,29.96,NW,315,0.0,0.0,81,0.00,,,0.00,WUHU21623XXSP,2013-04-09 09:37:00,
2013-04-09 05:42:00,53.4,47.8,29.96,NW,315,0.0,0.0,81,0.00,,,0.00,WUHU21623XXSP,2013-04-09 09:42:00,
2013-04-09 05:47:00,53.2,47.6,29.96,NW,315,0.0,0.0,81,0.00,,,0.00,WUHU21623XXSP,2013-04-09 09:47:00,
2013-04-09 05:52:00,52.9,47.2,29.97,NW,315,0.0,0.0,81,0.00,,,0.00,WUHU21623XXSP,2013-04-09 09:52:00,
2013-04-09 05:57:00,52.9,47.2,29.97,NW,315,0.0,0.0,81,0.00,,,0.00,WUHU21623XXSP,2013-04-09 09:57:00,
2013-04-09 06:02:00,52.9,47.2,29.98,NW,315,0.0,0.0,81,0.00,,,0.00,WUHU21623XXSP,2013-04-09 10:02:00,
2013-04-09 06:07:00,52.7,47.4,29.98,NW,315,0.0,0.0,82,0.00,,,0.00,WUHU21623XXSP,2013-04-09 10:07:00,
2013-04-09 06:12:00,52.7,47.4,29.98,NW,315,0.0,0.0,82,0.00,,,0.00,WUHU21623XXSP,2013-04-09 10:12:00,
2013-04-09 06:18:00,52.5,47.4,29.98,NW,315,0.0,0.0,82,0.00,,,0.00,WUHU21623XXSP,2013-04-09 10:18:00,
2013-04-09 06:23:00,52.5,47.5,29.98,NW,315,0.0,0.0,83,0.00,,,0.00,WUHU21623XXSP,2013-04-09 10:23:00,
2013-04-09 06:28:00,52.3,47.3,29.99,NW,315,0.0,0.0,83,0.00,,,0.00,WUHU21623XXSP,2013-04-09 10:28:00,
2013-04-09 06:33:00,52.2,47.1,29.99,NW,315,0.0,0.0,83,0.00,,,0.00,WUHU21623XXSP,2013-04-09 10:33:00,
2013-04-09 06:38:00,52.0,47.0,29.99,NW,315,0.0,0.0,83,0.00,,,0.00,WUHU21623XXSP,2013-04-09 10:38:00,
2013-04-09 06:43:00,51.8,46.8,29.99,NW,315,0.0,0.0,83,0.00,,,0.00,WUHU21623XXSP,2013-04-09 10:43:00,
2013-04-09 06:48:00,51.8,46.8,29.99,NW,315,0.0,0.0,83,0.00,,,0.00,WUHU21623XXSP,2013-04-09 10:48:00,
2013-04-09 06:53:00,51.8,46.8,30.00,West,270,0.0,0.0,83,0.00,,,0.00,WUHU21623XXSP,2013-04-09 10:53:00,
2013-04-09 06:58:00,51.8,46.8,30.00,NNW,337,1.6,1.6,83,0.00,,,0.00,WUHU21623XXSP,2013-04-09 10:58:00,
2013-04-09 07:03:00,51.8,46.8,30.00,NNW,337,1.6,1.6,83,0.00,,,0.00,WUHU21623XXSP,2013-04-09 11:03:00,
2013-04-09 07:08:00,51.6,46.9,30.01,WNW,292,0.0,1.6,84,0.00,,,0.00,WUHU21623XXSP,2013-04-09 11:08:00,
2013-04-09 07:13:00,51.6,46.9,30.01,NW,315,0.0,0.0,84,0.00,,,0.00,WUHU21623XXSP,2013-04-09 11:13:00,
2013-04-09 07:18:00,51.6,46.9,30.01,NW,315,0.0,0.0,84,0.00,,,0.00,WUHU21623XXSP,2013-04-09 11:18:00,
2013-04-09 07:23:00,51.6,46.9,30.01,NW,315,0.0,0.0,84,0.00,,,0.00,WUHU21623XXSP,2013-04-09 11:23:00,
2013-04-09 07:28:00,52.0,46.9,30.01,NW,315,0.0,0.0,84,0.00,,,0.00,WUHU21623XXSP,2013-04-09 11:28:00,
2013-04-09 07:33:00,52.0,47.3,30.02,NW,315,0.0,0.0,84,0.00,,,0.00,WUHU21623XXSP,2013-04-09 11:33:00,
2013-04-09 07:38:00,52.3,47.9,30.02,NW,315,0.0,0.0,85,0.00,,,0.00,WUHU21623XXSP,2013-04-09 11:38:00,
2013-04-09 07:43:00,52.5,48.1,30.02,WNW,292,0.0,0.0,85,0.00,,,0.00,WUHU21623XXSP,2013-04-09 11:43:00,
2013-04-09 07:48:00,52.9,48.5,30.02,West,270,0.0,0.0,85,0.00,,,0.00,WUHU21623XXSP,2013-04-09 11:48:00,
2013-04-09 07:53:00,53.1,48.7,30.03,WSW,247,0.0,0.0,85,0.00,,,0.00,WUHU21623XXSP,2013-04-09 11:53:00,
2013-04-09 07:58:00,53.2,48.8,30.03,WNW,292,0.0,0.9,85,0.00,,,0.00,WUHU21623XXSP,2013-04-09 11:58:00,
2013-04-09 08:03:00,53.4,49.0,30.03,WNW,292,0.0,0.9,85,0.00,,,0.00,WUHU21623XXSP,2013-04-09 12:03:00,
2013-04-09 08:08:00,54.0,49.2,30.03,WNW,292,0.0,0.0,84,0.00,,,0.00,WUHU21623XXSP,2013-04-09 12:08:00,
2013-04-09 08:13:00,54.3,49.5,30.03,West,270,0.0,1.1,84,0.00,,,0.00,WUHU21623XXSP,2013-04-09 12:13:00,
2013-04-09 08:18:00,55.0,49.9,30.03,NW,315,0.0,1.1,84,0.00,,,0.00,WUHU21623XXSP,2013-04-09 12:18:00,
2013-04-09 08:23:00,55.6,50.4,30.04,NNW,337,0.0,0.0,83,0.00,,,0.00,WUHU21623XXSP,2013-04-09 12:23:00,
2013-04-09 08:28:00,56.5,50.8,30.04,NNW,337,0.0,0.0,83,0.00,,,0.00,WUHU21623XXSP,2013-04-09 12:28:00,
2013-04-09 08:33:00,57.0,50.5,30.04,NE,45,0.0,2.0,79,0.00,,,0.00,WUHU21623XXSP,2013-04-09 12:33:00,
2013-04-09 08:38:00,57.4,50.2,30.04,ENE,67,0.0,2.2,77,0.00,,,0.00,WUHU21623XXSP,2013-04-09 12:38:00,
2013-04-09 08:43:00,57.7,50.2,30.04,ENE,67,0.0,2.2,76,0.00,,,0.00,WUHU21623XXSP,2013-04-09 12:43:00,
2013-04-09 08:48:00,58.3,50.0,30.04,ENE,67,0.9,0.9,74,0.00,,,0.00,WUHU21623XXSP,2013-04-09 12:48:00,
2013-04-09 08:53:00,58.6,49.6,30.04,NE,45,0.0,0.9,72,0.00,,,0.00,WUHU21623XXSP,2013-04-09 12:53:00,
2013-04-09 08:58:00,58.8,49.5,30.04,ENE,67,0.0,0.9,71,0.00,,,0.00,WUHU21623XXSP,2013-04-09 12:58:00,
2013-04-09 09:03:00,58.8,49.1,30.04,ENE,67,0.0,0.0,70,0.00,,,0.00,WUHU21623XXSP,2013-04-09 13:03:00,
2013-04-09 09:08:00,59.2,49.5,30.03,NNW,337,0.0,0.0,70,0.00,,,0.00,WUHU21623XXSP,2013-04-09 13:08:00,
2013-04-09 09:13:00,59.5,49.4,30.03,NE,45,0.0,1.3,69,0.00,,,0.00,WUHU21623XXSP,2013-04-09 13:13:00,
2013-04-09 09:18:00,59.7,49.6,30.03,NNE,22,0.7,1.3,69,0.00,,,0.00,WUHU21623XXSP,2013-04-09 13:18:00,
2013-04-09 09:23:00,60.1,49.8,30.03,NNW,337,0.0,1.1,68,0.00,,,0.00,WUHU21623XXSP,2013-04-09 13:23:00,
2013-04-09 09:28:00,60.3,49.5,30.03,WSW,247,0.0,0.0,67,0.00,,,0.00,WUHU21623XXSP,2013-04-09 13:28:00,
2013-04-09 09:33:00,60.6,49.5,30.03,SW,225,1.8,1.8,66,0.00,,,0.00,WUHU21623XXSP,2013-04-09 13:33:00,
2013-04-09 09:38:00,61.0,49.2,30.03,NNW,337,1.6,1.8,66,0.00,,,0.00,WUHU21623XXSP,2013-04-09 13:38:00,
2013-04-09 09:43:00,61.2,49.2,30.03,NNW,337,1.6,1.6,65,0.00,,,0.00,WUHU21623XXSP,2013-04-09 13:43:00,
2013-04-09 09:48:00,61.5,49.2,30.03,WSW,247,0.0,1.6,64,0.00,,,0.00,WUHU21623XXSP,2013-04-09 13:48:00,
2013-04-09 09:53:00,61.5,49.2,30.03,NNW,337,0.0,1.6,64,0.00,,,0.00,WUHU21623XXSP,2013-04-09 13:53:00,
2013-04-09 09:58:00,61.5,48.8,30.03,NW,315,0.0,0.0,63,0.00,,,0.00,WUHU21623XXSP,2013-04-09 13:58:00,
2013-04-09 10:03:00,61.9,48.7,30.03,South,180,0.9,0.9,62,0.00,,,0.00,WUHU21623XXSP,2013-04-09 14:03:00,
2013-04-09 10:08:00,62.1,48.9,30.03,NNW,337,0.0,1.3,62,0.00,,,0.00,WUHU21623XXSP,2013-04-09 14:08:00,
2013-04-09 10:13:00,62.2,49.1,30.03,North,0,0.0,3.4,62,0.00,,,0.00,WUHU21623XXSP,2013-04-09 14:13:00,
2013-04-09 10:18:00,62.4,48.8,30.03,SSW,202,2.9,3.6,61,0.00,,,0.00,WUHU21623XXSP,2013-04-09 14:18:00,
2013-04-09 10:23:00,63.0,49.3,30.03,West,270,0.0,3.6,61,0.00,,,0.00,WUHU21623XXSP,2013-04-09 14:23:00,
2013-04-09 10:29:00,63.1,49.0,30.03,NW,315,0.9,0.9,60,0.00,,,0.00,WUHU21623XXSP,2013-04-09 14:29:00,
2013-04-09 10:34:00,63.7,49.6,30.04,NW,315,0.0,2.5,60,0.00,,,0.00,WUHU21623XXSP,2013-04-09 14:34:00,
2013-04-09 10:39:00,64.0,49.7,30.03,NNW,337,2.5,2.5,59,0.00,,,0.00,WUHU21623XXSP,2013-04-09 14:39:00,
2013-04-09 10:44:00,64.2,49.5,30.03,NE,45,1.6,2.5,59,0.00,,,0.00,WUHU21623XXSP,2013-04-09 14:44:00,
2013-04-09 10:49:00,64.6,49.4,30.03,ENE,67,0.9,2.5,58,0.00,,,0.00,WUHU21623XXSP,2013-04-09 14:49:00,
2013-04-09 10:54:00,64.6,49.9,30.03,WSW,247,0.0,2.2,59,0.00,,,0.00,WUHU21623XXSP,2013-04-09 14:54:00,
2013-04-09 10:59:00,64.9,50.2,30.03,SW,225,3.1,3.1,59,0.00,,,0.00,WUHU21623XXSP,2013-04-09 14:59:00,
2013-04-09 11:04:00,65.1,50.2,30.03,NNW,337,3.1,3.1,59,0.00,,,0.00,WUHU21623XXSP,2013-04-09 15:04:00,
2013-04-09 11:09:00,65.3,50.4,30.03,SE,135,0.0,3.1,59,0.00,,,0.00,WUHU21623XXSP,2013-04-09 15:09:00,
2013-04-09 11:14:00,65.5,50.8,30.02,West,270,1.3,2.9,58,0.00,,,0.00,WUHU21623XXSP,2013-04-09 15:14:00,
2013-04-09 11:20:00,65.8,50.6,30.03,WSW,247,3.1,3.6,58,0.00,,,0.00,WUHU21623XXSP,2013-04-09 15:20:00,
2013-04-09 11:25:00,66.2,50.8,30.03,WSW,247,1.6,3.6,58,0.00,,,0.00,WUHU21623XXSP,2013-04-09 15:25:00,
2013-04-09 11:30:00,66.4,51.2,30.03,WSW,247,1.3,1.6,58,0.00,,,0.00,WUHU21623XXSP,2013-04-09 15:30:00,
2013-04-09 11:35:00,66.7,52.0,30.02,ENE,67,0.0,1.3,59,0.00,,,0.00,WUHU21623XXSP,2013-04-09 15:35:00,
2013-04-09 11:40:00,66.9,51.7,30.02,ENE,67,0.0,1.3,58,0.00,,,0.00,WUHU21623XXSP,2013-04-09 15:40:00,
2013-04-09 11:45:00,67.3,52.0,30.02,NNE,22,0.0,0.0,58,0.00,,,0.00,WUHU21623XXSP,2013-04-09 15:45:00,
2013-04-09 11:50:00,67.6,52.3,30.02,NE,45,0.0,3.8,58,0.00,,,0.00,WUHU21623XXSP,2013-04-09 15:50:00,
2013-04-09 11:55:00,67.8,52.5,30.02,SE,135,0.0,3.8,58,0.00,,,0.00,WUHU21623XXSP,2013-04-09 15:55:00,
2013-04-09 12:00:00,67.8,52.5,30.02,SE,135,0.0,0.0,58,0.00,,,0.00,WUHU21623XXSP,2013-04-09 16:00:00,
2013-04-09 12:05:00,68.4,52.8,30.01,East,90,0.0,0.0,58,0.00,,,0.00,WUHU21623XXSP,2013-04-09 16:05:00,
2013-04-09 12:10:00,68.7,53.3,30.01,NW,315,1.3,1.3,58,0.00,,,0.00,WUHU21623XXSP,2013-04-09 16:10:00,
2013-04-09 12:15:00,68.7,53.3,30.00,NE,45,0.9,1.3,58,0.00,,,0.00,WUHU21623XXSP,2013-04-09 16:15:00,
2013-04-09 12:20:00,69.4,54.0,30.00,West,270,1.1,1.1,58,0.00,,,0.00,WUHU21623XXSP,2013-04-09 16:20:00,
2013-04-09 12:25:00,69.6,54.2,29.99,NNW,337,3.8,3.8,58,0.00,,,0.00,WUHU21623XXSP,2013-04-09 16:25:00,
2013-04-09 12:30:00,69.6,54.2,30.00,NNW,337,0.0,4.3,58,0.00,,,0.00,WUHU21623XXSP,2013-04-09 16:30:00,
2013-04-09 12:35:00,70.0,54.6,29.99,NNW,337,0.0,4.3,58,0.00,,,0.00,WUHU21623XXSP,2013-04-09 16:35:00,
2013-04-09 12:40:00,70.2,54.7,29.99,NW,315,3.6,3.6,58,0.00,,,0.00,WUHU21623XXSP,2013-04-09 16:40:00,
2013-04-09 12:45:00,70.5,55.0,29.98,ENE,67,0.7,3.6,58,0.00,,,0.00,WUHU21623XXSP,2013-04-09 16:45:00,
2013-04-09 12:50:00,70.9,55.2,29.98,NE,45,0.0,2.2,59,0.00,,,0.00,WUHU21623XXSP,2013-04-09 16:50:00,
2013-04-09 12:55:00,71.2,56.2,29.98,North,0,0.9,0.9,59,0.00,,,0.00,WUHU21623XXSP,2013-04-09 16:55:00,
2013-04-09 13:00:00,71.4,55.9,29.98,SW,225,0.9,0.9,58,0.00,,,0.00,WUHU21623XXSP,2013-04-09 17:00:00,
2013-04-09 13:05:00,72.1,56.0,29.98,NW,315,3.8,3.8,57,0.00,,,0.00,WUHU21623XXSP,2013-04-09 17:05:00,
2013-04-09 13:10:00,72.5,56.3,29.98,East,90,0.7,3.8,57,0.00,,,0.00,WUHU21623XXSP,2013-04-09 17:10:00,
2013-04-09 13:15:00,73.0,56.8,29.98,NE,45,0.0,3.8,57,0.00,,,0.00,WUHU21623XXSP,2013-04-09 17:15:00,
2013-04-09 13:20:00,73.6,56.8,29.98,NE,45,0.9,1.6,56,0.00,,,0.00,WUHU21623XXSP,2013-04-09 17:20:00,
2013-04-09 13:25:00,73.9,57.2,29.98,NW,315,0.0,4.7,56,0.00,,,0.00,WUHU21623XXSP,2013-04-09 17:25:00,
2013-04-09 13:30:00,74.1,56.8,29.98,ENE,67,1.3,4.7,55,0.00,,,0.00,WUHU21623XXSP,2013-04-09 17:30:00,
2013-04-09 13:35:00,74.5,57.2,29.97,SSW,202,2.5,2.5,55,0.00,,,0.00,WUHU21623XXSP,2013-04-09 17:35:00,
2013-04-09 13:40:00,74.8,57.1,29.97,NNW,337,0.9,2.5,54,0.00,,,0.00,WUHU21623XXSP,2013-04-09 17:40:00,
2013-04-09 13:45:00,75.0,57.2,29.97,WNW,292,1.3,1.3,54,0.00,,,0.00,WUHU21623XXSP,2013-04-09 17:45:00,
2013-04-09 13:50:00,75.6,57.7,29.97,NW,315,0.0,1.3,54,0.00,,,0.00,WUHU21623XXSP,2013-04-09 17:50:00,
2013-04-09 13:55:00,75.7,57.4,29.97,NW,315,0.0,0.0,53,0.00,,,0.00,WUHU21623XXSP,2013-04-09 17:55:00,
2013-04-09 14:00:00,75.4,57.1,29.96,East,90,0.0,0.0,53,0.00,,,0.00,WUHU21623XXSP,2013-04-09 18:00:00,
2013-04-09 14:05:00,75.0,57.2,29.97,ENE,67,0.0,1.1,54,0.00,,,0.00,WUHU21623XXSP,2013-04-09 18:05:00,
2013-04-09 14:10:00,74.8,57.1,29.96,ENE,67,0.9,1.1,54,0.00,,,0.00,WUHU21623XXSP,2013-04-09 18:10:00,
2013-04-09 14:15:00,75.0,57.2,29.96,NW,315,0.0,2.2,54,0.00,,,0.00,WUHU21623XXSP,2013-04-09 18:15:00,
2013-04-09 14:20:00,75.7,57.9,29.96,North,0,2.2,2.9,54,0.00,,,0.00,WUHU21623XXSP,2013-04-09 18:20:00,
2013-04-09 14:25:00,75.9,57.6,29.95,NW,315,1.3,2.9,53,0.00,,,0.00,WUHU21623XXSP,2013-04-09 18:25:00,
2013-04-09 14:30:00,75.9,57.6,29.95,SW,225,0.0,1.3,53,0.00,,,0.00,WUHU21623XXSP,2013-04-09 18:30:00,
2013-04-09 14:35:00,75.7,57.4,29.94,SW,225,3.8,3.8,53,0.00,,,0.00,WUHU21623XXSP,2013-04-09 18:35:00,
2013-04-09 14:40:00,75.9,57.6,29.94,North,0,0.0,3.8,53,0.00,,,0.00,WUHU21623XXSP,2013-04-09 18:40:00,
2013-04-09 14:45:00,75.9,57.6,29.94,NW,315,0.0,0.0,53,0.00,,,0.00,WUHU21623XXSP,2013-04-09 18:45:00,
2013-04-09 14:50:00,76.3,57.9,29.93,NNE,22,0.9,0.9,53,0.00,,,0.00,WUHU21623XXSP,2013-04-09 18:50:00,
2013-04-09 14:55:00,76.5,57.5,29.93,SSE,157,2.5,2.5,52,0.00,,,0.00,WUHU21623XXSP,2013-04-09 18:55:00,
2013-04-09 15:00:00,77.2,58.2,29.93,SSW,202,3.6,3.6,52,0.00,,,0.00,WUHU21623XXSP,2013-04-09 19:00:00,
2013-04-09 15:06:00,77.4,57.8,29.93,West,270,0.0,3.6,51,0.00,,,0.00,WUHU21623XXSP,2013-04-09 19:06:00,
2013-04-09 15:11:00,77.5,58.0,29.93,SSW,202,0.0,0.0,51,0.00,,,0.00,WUHU21623XXSP,2013-04-09 19:11:00,
2013-04-09 15:16:00,77.5,57.5,29.92,ENE,67,1.3,4.3,50,0.00,,,0.00,WUHU21623XXSP,2013-04-09 19:16:00,
2013-04-09 15:21:00,77.7,57.7,29.92,NW,315,2.7,4.3,50,0.00,,,0.00,WUHU21623XXSP,2013-04-09 19:21:00,
2013-04-09 15:26:00,78.1,57.4,29.91,NNW,337,5.4,5.4,49,0.00,,,0.00,WUHU21623XXSP,2013-04-09 19:26:00,
2013-04-09 15:31:00,77.9,57.2,29.91,ENE,67,0.0,5.4,49,0.00,,,0.00,WUHU21623XXSP,2013-04-09 19:31:00,
2013-04-09 15:36:00,77.9,57.2,29.91,NNE,22,0.0,2.9,49,0.00,,,0.00,WUHU21623XXSP,2013-04-09 19:36:00,
2013-04-09 15:41:00,77.9,57.2,29.90,North,0,0.0,0.0,49,0.00,,,0.00,WUHU21623XXSP,2013-04-09 19:41:00,
2013-04-09 15:46:00,77.5,56.9,29.90,SSW,202,2.2,2.2,49,0.00,,,0.00,WUHU21623XXSP,2013-04-09 19:46:00,
2013-04-09 15:51:00,77.4,56.9,29.90,SE,135,2.5,2.5,49,0.00,,,0.00,WUHU21623XXSP,2013-04-09 19:51:00,
2013-04-09 15:56:00,77.4,56.7,29.89,NW,315,0.0,2.5,49,0.00,,,0.00,WUHU21623XXSP,2013-04-09 19:56:00,
2013-04-09 16:01:00,77.4,56.6,29.89,SSE,157,2.0,2.5,49,0.00,,,0.00,WUHU21623XXSP,2013-04-09 20:01:00,
2013-04-09 16:06:00,77.5,56.9,29.88,SW,225,1.3,2.0,49,0.00,,,0.00,WUHU21623XXSP,2013-04-09 20:06:00,
2013-04-09 16:11:00,77.9,56.6,29.88,North,0,0.0,2.0,48,0.00,,,0.00,WUHU21623XXSP,2013-04-09 20:11:00,
2013-04-09 16:16:00,78.1,56.8,29.88,North,0,0.0,1.1,48,0.00,,,0.00,WUHU21623XXSP,2013-04-09 20:16:00,
2013-04-09 16:21:00,78.1,56.8,29.88,West,270,1.1,2.5,48,0.00,,,0.00,WUHU21623XXSP,2013-04-09 20:21:00,
2013-04-09 16:26:00,78.4,55.7,29.88,NW,315,4.0,4.0,46,0.00,,,0.00,WUHU21623XXSP,2013-04-09 20:26:00,
2013-04-09 16:31:00,78.4,56.5,29.88,NNE,22,0.0,4.0,47,0.00,,,0.00,WUHU21623XXSP,2013-04-09 20:31:00,
2013-04-09 16:36:00,78.4,56.5,29.88,NNE,22,0.0,4.0,48,0.00,,,0.00,WUHU21623XXSP,2013-04-09 20:36:00,
2013-04-09 16:41:00,78.4,56.5,29.88,NW,315,0.7,0.7,47,0.00,,,0.00,WUHU21623XXSP,2013-04-09 20:41:00,
2013-04-09 16:46:00,78.4,56.5,29.87,NW,315,0.0,0.7,47,0.00,,,0.00,WUHU21623XXSP,2013-04-09 20:46:00,
2013-04-09 16:51:00,78.4,57.1,29.87,WSW,247,0.9,0.9,47,0.00,,,0.00,WUHU21623XXSP,2013-04-09 20:51:00,
2013-04-09 16:56:00,78.1,56.9,29.87,SW,225,2.7,2.7,48,0.00,,,0.00,WUHU21623XXSP,2013-04-09 20:56:00,
2013-04-09 17:02:00,78.1,56.2,29.87,ENE,67,0.0,2.7,47,0.00,,,0.00,WUHU21623XXSP,2013-04-09 21:02:00,
2013-04-09 17:07:00,78.1,56.2,29.87,ENE,67,0.0,2.7,47,0.00,,,0.00,WUHU21623XXSP,2013-04-09 21:07:00,
2013-04-09 17:12:00,78.1,56.2,29.86,NNE,22,3.4,3.4,47,0.00,,,0.00,WUHU21623XXSP,2013-04-09 21:12:00,
2013-04-09 17:17:00,78.4,55.5,29.86,NNW,337,0.0,3.4,46,0.00,,,0.00,WUHU21623XXSP,2013-04-09 21:17:00,
2013-04-09 17:22:00,78.6,56.6,29.86,NW,315,0.0,1.3,47,0.00,,,0.00,WUHU21623XXSP,2013-04-09 21:22:00,
2013-04-09 17:27:00,78.6,56.6,29.86,NNW,337,0.0,0.0,47,0.00,,,0.00,WUHU21623XXSP,2013-04-09 21:27:00,
2013-04-09 17:32:00,78.6,56.6,29.86,West,270,6.0,6.0,47,0.00,,,0.00,WUHU21623XXSP,2013-04-09 21:32:00,
2013-04-09 17:37:00,78.6,56.0,29.86,ESE,112,1.1,6.0,46,0.00,,,0.00,WUHU21623XXSP,2013-04-09 21:37:00,
2013-04-09 17:42:00,78.6,56.0,29.86,NNW,337,3.8,3.8,46,0.00,,,0.00,WUHU21623XXSP,2013-04-09 21:42:00,
2013-04-09 17:47:00,78.8,55.6,29.86,SE,135,4.3,4.3,45,0.00,,,0.00,WUHU21623XXSP,2013-04-09 21:47:00,
2013-04-09 17:52:00,78.6,55.4,29.86,SW,225,5.6,5.6,45,0.00,,,0.00,WUHU21623XXSP,2013-04-09 21:52:00,
2013-04-09 17:57:00,78.6,55.4,29.86,ENE,67,0.9,5.6,45,0.00,,,0.00,WUHU21623XXSP,2013-04-09 21:57:00,
2013-04-09 18:02:00,78.6,55.4,29.86,ENE,67,2.5,2.5,45,0.00,,,0.00,WUHU21623XXSP,2013-04-09 22:02:00,
2013-04-09 18:07:00,78.6,55.4,29.86,NW,315,1.1,2.5,45,0.00,,,0.00,WUHU21623XXSP,2013-04-09 22:07:00,
2013-04-09 18:12:00,78.6,55.4,29.86,NW,315,0.0,3.4,45,0.00,,,0.00,WUHU21623XXSP,2013-04-09 22:12:00,
2013-04-09 18:17:00,78.6,55.4,29.86,NNW,337,3.1,3.4,45,0.00,,,0.00,WUHU21623XXSP,2013-04-09 22:17:00,
2013-04-09 18:22:00,78.6,55.4,29.86,NNW,337,2.2,3.1,45,0.00,,,0.00,WUHU21623XXSP,2013-04-09 22:22:00,
2013-04-09 18:27:00,78.6,55.4,29.86,WNW,292,2.0,2.2,45,0.00,,,0.00,WUHU21623XXSP,2013-04-09 22:27:00,
2013-04-09 18:33:00,78.4,55.3,29.86,North,0,1.3,6.9,45,0.00,,,0.00,WUHU21623XXSP,2013-04-09 22:33:00,
2013-04-09 18:38:00,78.4,55.3,29.86,NW,315,4.7,6.9,45,0.00,,,0.00,WUHU21623XXSP,2013-04-09 22:38:00,
2013-04-09 18:43:00,78.4,55.3,29.86,North,0,4.0,4.7,45,0.00,,,0.00,WUHU21623XXSP,2013-04-09 22:43:00,
2013-04-09 18:48:00,78.1,54.9,29.86,South,180,3.4,4.9,45,0.00,,,0.00,WUHU21623XXSP,2013-04-09 22:48:00,
2013-04-09 18:53:00,78.1,54.9,29.86,NNW,337,3.8,4.9,45,0.00,,,0.00,WUHU21623XXSP,2013-04-09 22:53:00,
2013-04-09 18:58:00,77.9,54.8,29.86,North,0,0.9,3.8,45,0.00,,,0.00,WUHU21623XXSP,2013-04-09 22:58:00,
2013-04-09 19:03:00,77.5,55.1,29.86,North,0,0.9,5.1,46,0.00,,,0.00,WUHU21623XXSP,2013-04-09 23:03:00,
2013-04-09 19:08:00,77.4,55.1,29.86,SSW,202,2.0,5.1,46,0.00,,,0.00,WUHU21623XXSP,2013-04-09 23:08:00,
2013-04-09 19:13:00,77.2,54.7,29.85,WSW,247,2.5,2.5,46,0.00,,,0.00,WUHU21623XXSP,2013-04-09 23:13:00,
2013-04-09 19:18:00,76.8,55.0,29.85,ENE,67,0.0,2.5,47,0.00,,,0.00,WUHU21623XXSP,2013-04-09 23:18:00,
2013-04-09 19:23:00,76.5,54.7,29.85,South,180,2.0,2.0,47,0.00,,,0.00,WUHU21623XXSP,2013-04-09 23:23:00,
2013-04-09 19:28:00,76.1,54.4,29.85,ENE,67,0.0,2.0,47,0.00,,,0.00,WUHU21623XXSP,2013-04-09 23:28:00,
2013-04-09 19:33:00,75.7,54.7,29.85,ESE,112,0.0,1.6,48,0.00,,,0.00,WUHU21623XXSP,2013-04-09 23:33:00,
2013-04-09 19:37:00,75.2,54.5,29.84,ESE,112,0.0,1.6,49,0.00,,,0.00,WUHU21623XXSP,2013-04-09 23:37:00,
2013-04-09 19:42:00,74.8,54.4,29.85,ENE,67,0.0,5.8,49,0.00,,,0.00,WUHU21623XXSP,2013-04-09 23:42:00,
2013-04-09 19:47:00,74.1,54.7,29.85,ENE,67,0.0,5.8,50,0.00,,,0.00,WUHU21623XXSP,2013-04-09 23:47:00,
2013-04-09 19:53:00,74.1,54.3,29.85,WSW,247,1.3,1.3,50,0.00,,,0.00,WUHU21623XXSP,2013-04-09 23:53:00,
2013-04-09 19:58:00,73.9,54.1,29.85,NE,45,0.0,1.3,50,0.00,,,0.00,WUHU21623XXSP,2013-04-09 23:58:00,
2013-04-09 20:03:00,73.6,54.3,29.85,ESE,112,0.0,1.3,51,0.00,,,0.00,WUHU21623XXSP,2013-04-10 00:03:00,
2013-04-09 20:08:00,73.2,53.9,29.85,ENE,67,0.0,0.0,51,0.00,,,0.00,WUHU21623XXSP,2013-04-10 00:08:00,
2013-04-09 20:13:00,73.0,54.3,29.85,WNW,292,1.1,1.1,52,0.00,,,0.00,WUHU21623XXSP,2013-04-10 00:13:00,
2013-04-09 20:18:00,72.7,54.0,29.85,ENE,67,0.0,1.1,52,0.00,,,0.00,WUHU21623XXSP,2013-04-10 00:18:00,
2013-04-09 20:23:00,72.5,54.3,29.85,SSW,202,0.0,0.0,53,0.00,,,0.00,WUHU21623XXSP,2013-04-10 00:23:00,
2013-04-09 20:28:00,72.3,54.1,29.85,SSE,157,0.0,0.0,53,0.00,,,0.00,WUHU21623XXSP,2013-04-10 00:28:00,
2013-04-09 20:33:00,72.3,54.1,29.85,East,90,0.0,0.9,53,0.00,,,0.00,WUHU21623XXSP,2013-04-10 00:33:00,
2013-04-09 20:38:00,72.1,54.0,29.85,ENE,67,0.0,0.9,53,0.00,,,0.00,WUHU21623XXSP,2013-04-10 00:38:00,
2013-04-09 20:43:00,72.0,54.3,29.85,ENE,67,0.0,0.0,54,0.00,,,0.00,WUHU21623XXSP,2013-04-10 00:43:00,
2013-04-09 20:48:00,71.8,54.2,29.85,NE,45,0.0,0.0,54,0.00,,,0.00,WUHU21623XXSP,2013-04-10 00:48:00,
2013-04-09 20:53:00,71.8,54.2,29.85,ENE,67,0.0,0.0,54,0.00,,,0.00,WUHU21623XXSP,2013-04-10 00:53:00,
2013-04-09 20:58:00,71.4,53.8,29.84,SSE,157,0.0,1.3,54,0.00,,,0.00,WUHU21623XXSP,2013-04-10 00:58:00,
2013-04-09 21:03:00,71.2,54.2,29.84,NNW,337,0.0,1.3,55,0.00,,,0.00,WUHU21623XXSP,2013-04-10 01:03:00,
2013-04-09 21:08:00,71.2,54.2,29.84,South,180,0.0,0.9,55,0.00,,,0.00,WUHU21623XXSP,2013-04-10 01:08:00,
2013-04-09 21:13:00,70.9,54.2,29.84,ESE,112,0.0,0.0,55,0.00,,,0.00,WUHU21623XXSP,2013-04-10 01:13:00,
2013-04-09 21:18:00,70.9,53.9,29.84,East,90,0.0,0.0,55,0.00,,,0.00,WUHU21623XXSP,2013-04-10 01:18:00,
2013-04-09 21:23:00,70.7,54.2,29.84,SE,135,0.0,0.0,56,0.00,,,0.00,WUHU21623XXSP,2013-04-10 01:23:00,
2013-04-09 21:28:00,70.5,54.0,29.84,NNW,337,0.0,0.0,56,0.00,,,0.00,WUHU21623XXSP,2013-04-10 01:28:00,
2013-04-09 21:33:00,70.5,54.0,29.84,WNW,292,0.0,0.0,56,0.00,,,0.00,WUHU21623XXSP,2013-04-10 01:33:00,
2013-04-09 21:38:00,70.5,54.0,29.84,ENE,67,0.0,0.0,56,0.00,,,0.00,WUHU21623XXSP,2013-04-10 01:38:00,
2013-04-09 21:43:00,70.5,54.0,29.84,ENE,67,2.9,2.9,56,0.00,,,0.00,WUHU21623XXSP,2013-04-10 01:43:00,
2013-04-09 21:48:00,70.7,54.2,29.84,ENE,67,0.0,2.9,56,0.00,,,0.00,WUHU21623XXSP,2013-04-10 01:48:00,
2013-04-09 21:53:00,70.9,54.4,29.84,NNE,22,0.0,0.0,56,0.00,,,0.00,WUHU21623XXSP,2013-04-10 01:53:00,
2013-04-09 21:58:00,70.9,54.4,29.84,NNE,22,1.6,2.5,56,0.00,,,0.00,WUHU21623XXSP,2013-04-10 01:58:00,
2013-04-09 22:03:00,70.7,54.2,29.84,NW,315,0.0,2.5,56,0.00,,,0.00,WUHU21623XXSP,2013-04-10 02:03:00,
2013-04-09 22:08:00,70.7,54.2,29.84,NW,315,1.8,1.8,56,0.00,,,0.00,WUHU21623XXSP,2013-04-10 02:08:00,
2013-04-09 22:13:00,70.5,54.0,29.85,South,180,0.0,1.8,56,0.00,,,0.00,WUHU21623XXSP,2013-04-10 02:13:00,
2013-04-09 22:18:00,70.5,54.0,29.84,NE,45,0.0,1.1,56,0.00,,,0.00,WUHU21623XXSP,2013-04-10 02:18:00,
2013-04-09 22:23:00,70.2,53.7,29.84,East,90,0.0,0.0,56,0.00,,,0.00,WUHU21623XXSP,2013-04-10 02:23:00,
2013-04-09 22:28:00,70.0,54.0,29.83,ENE,67,2.2,2.2,57,0.00,,,0.00,WUHU21623XXSP,2013-04-10 02:28:00,
2013-04-09 22:33:00,69.8,53.9,29.83,SE,135,0.0,2.2,57,0.00,,,0.00,WUHU21623XXSP,2013-04-10 02:33:00,
2013-04-09 22:38:00,69.6,53.7,29.83,ENE,67,0.0,0.9,57,0.00,,,0.00,WUHU21623XXSP,2013-04-10 02:38:00,
2013-04-09 22:43:00,69.6,53.7,29.83,ENE,67,0.0,0.9,57,0.00,,,0.00,WUHU21623XXSP,2013-04-10 02:43:00,
2013-04-09 22:48:00,69.6,53.7,29.83,ENE,67,2.0,2.0,57,0.00,,,0.00,WUHU21623XXSP,2013-04-10 02:48:00,
2013-04-09 22:53:00,69.6,53.7,29.83,ENE,67,0.0,2.0,57,0.00,,,0.00,WUHU21623XXSP,2013-04-10 02:53:00,
2013-04-09 22:58:00,69.3,53.3,29.84,ENE,67,1.1,1.1,57,0.00,,,0.00,WUHU21623XXSP,2013-04-10 02:58:00,
2013-04-09 23:03:00,69.3,53.3,29.84,NE,45,0.0,1.1,57,0.00,,,0.00,WUHU21623XXSP,2013-04-10 03:03:00,
2013-04-09 23:08:00,69.1,53.7,29.84,SW,225,0.0,1.3,58,0.00,,,0.00,WUHU21623XXSP,2013-04-10 03:08:00,
2013-04-09 23:13:00,68.9,53.5,29.84,NNE,22,1.1,1.3,58,0.00,,,0.00,WUHU21623XXSP,2013-04-10 03:13:00,
2013-04-09 23:18:00,68.7,53.3,29.84,NNE,22,0.0,1.1,58,0.00,,,0.00,WUHU21623XXSP,2013-04-10 03:18:00,
2013-04-09 23:23:00,68.5,53.2,29.84,SSE,157,1.1,1.6,58,0.00,,,0.00,WUHU21623XXSP,2013-04-10 03:23:00,
2013-04-09 23:28:00,68.5,53.0,29.84,NW,315,4.5,4.5,58,0.00,,,0.00,WUHU21623XXSP,2013-04-10 03:28:00,
2013-04-09 23:33:00,68.7,53.2,29.84,NW,315,4.5,4.5,58,0.00,,,0.00,WUHU21623XXSP,2013-04-10 03:33:00,
2013-04-09 23:38:00,68.9,53.5,29.84,NNW,337,0.0,4.5,58,0.00,,,0.00,WUHU21623XXSP,2013-04-10 03:38:00,
2013-04-09 23:43:00,69.4,53.9,29.84,NW,315,4.3,4.5,57,0.00,,,0.00,WUHU21623XXSP,2013-04-10 03:43:00,
2013-04-09 23:48:00,69.6,53.7,29.85,NW,315,3.6,4.3,57,0.00,,,0.00,WUHU21623XXSP,2013-04-10 03:48:00,
2013-04-09 23:53:00,69.8,53.9,29.85,NW,315,0.9,3.6,57,0.00,,,0.00,WUHU21623XXSP,2013-04-10 03:53:00,
2013-04-09 23:58:00,69.6,53.9,29.85,NW,315,0.0,3.6,56,0.00,,,0.00,WUHU21623XXSP,2013-04-10 03:58:00,